Regional Weather Roundup
Issued by NWS Goodland, KS

Home | Current Version | Previous Version | Graphics & Text | Print | Product List | Glossary On
Versions: 1 2 3 4 5 6 7 8 9 10 11 12 13 14 15 16 17 18 19 20 21 22 23 24 25 26 27 28 29 30 31 32 33 34 35 36 37 38 39 40 41 42 43 44 45 46 47 48 49 50
000
ASUS43 KGLD 011459
RWRGLD

GOODLAND FORECAST AREA HOURLY WEATHER ROUNDUP
NATIONAL WEATHER SERVICE GOODLAND KS
900 AM MDT TUE SEP 01 2015

...OFFICIAL OBSERVATIONS...

CITY           SKY/WX    TMP DP  RH WIND       PRES   REMARKS
GOODLAND KS    MOSUNNY   73  61  65 W6        30.03R
HILL CITY KS   LGT RAIN  74  63  68 SW9       29.96S
IMPERIAL NEB   MOSUNNY   70  58  65 W5        29.99S
MCCOOK NEB     SUNNY     75  63  66 VRB3      29.96R
AKRON CO       SUNNY     69  57  65 W10       30.07S
BURLINGTON CO  SUNNY     72  59  63 CALM      30.06R
LIMON CO       SUNNY     66  56  70 W3        30.13S
$$

...UNOFFICIAL OBSERVATIONS...

CITY           SKY/WX    TMP DP  RH WIND       PRES   REMARKS
COLBY KS       SUNNY     73  66  78 W7        30.02R
GOVE KS          N/A     73  32  22 MISG        N/A
LENORA KS        N/A     69  32  25 MISG        N/A
NORTON KS      SUNNY     73  55  53 SW16      29.94F
SHARON SPRINGS   N/A     70  62  77 CALM        N/A
KIT CARSON CO    N/A     69  60  74 MISG        N/A
YUMA CO          N/A     67  60  79 W9          N/A
$$



USA.gov is the U.S. government's official web portal to all federal, state and local government web resources and services.